Flag for Western Sahara Weather past 2 weeks in Smara, Western Sahara

Now
70 °F

Partly sunny.


Feels Like: 70 °F
Forecast: N/A
Wind: 8 mph from Northwest

Location: Laayoune/Hassan Isl


UV Index: N/A

Visibility: N/A


Pressure: 29.95 "Hg

Humidity: 60%

Dew point: 55 °F

Location of SmaraLocation

Historic Weather in Smara

°F

Smara temperature yesterday

Maximum temperature yesterday: 73 °F (at 4:00 PM)
Minimum temperature yesterday: 63 °F (at 1:00 AM)
Average temperature yesterday: 67 °F

Past Weeks' High & Low Weather Summary

 TemperatureHumidityPressure
High88 °F (Apr 13, 2:00 PM)94% (Apr 6, 9:05 PM)30.07 "Hg (Apr 6, 9:05 PM)
Low57 °F (Apr 16, 7:00 AM)24% (Apr 13, 2:00 PM)29.86 "Hg (Apr 9, 4:00 PM)
Average67 °F72%29.97 "Hg
* Reported Apr 5 6:00 PM — Apr 20 6:00 PM, Smara, Weather by CustomWeather, © 2014

Note: Actual official high and low records may vary slightly from our data, if they occured in-between our weather recording intervals... More about our weather records

Advertising

Historic Weather Conditions — Data for Previous 24 hours

 ConditionsComfort  
Time TempWeatherWind HumidityBarometerVisibility
6:00 PM
Apr 20
72 °FBroken clouds.10 mph61%29.98 "HgN/A
5:00 PM72 °FBroken clouds.9 mph61%29.98 "HgN/A
4:00 PM73 °FBroken clouds.7 mph53%29.95 "HgN/A
3:00 PM73 °FBroken clouds.7 mph53%29.98 "HgN/A
2:00 PM73 °FBroken clouds.5 mph57%29.98 "HgN/A
1:00 PM73 °FBroken clouds.9 mph57%30.01 "HgN/A
12:00 PM72 °FBroken clouds.9 mph65%30.01 "HgN/A
11:00 AM70 °FBroken clouds.10 mph73%30.01 "Hg5 mi
10:00 AM66 °FPartly sunny.7 mph88%29.98 "Hg5 mi
9:00 AM64 °FBroken clouds.6 mph88%29.98 "Hg5 mi
8:00 AM61 °FPartly cloudy.3 mph88%29.98 "Hg5 mi
7:00 AM59 °FClear.2 mph94%29.95 "Hg10 mi
5:00 AM61 °FClear.2 mph94%29.95 "Hg10 mi
4:00 AM63 °FClear.1 mph88%29.98 "Hg10 mi
3:00 AM64 °FClear.3 mph88%29.98 "Hg10 mi
2:00 AM64 °FClear.3 mph83%30.01 "Hg10 mi
1:00 AM64 °FClear.1 mph88%30.01 "Hg10 mi
12:00 AM66 °FClear.6 mph83%30.04 "Hg10 mi
11:00 PM
Apr 19
66 °FClear.6 mph83%30.04 "Hg10 mi
10:00 PM66 °FClear.6 mph83%30.04 "Hg10 mi
9:00 PM66 °FSunny.7 mph78%30.01 "Hg10 mi
7:00 PM70 °FSunny.15 mph64%30.01 "Hg10 mi
Weather by CustomWeather, © 2014

See weather overview